Location: Sungai Bunut
(2.6333°N, 113.7333°E)
Time: 10:35:35
(UTC+00:00)

Transit 2A - Pass Details

Date: 10 December 2023
Orbit: 599 x 953 km, 66.7° (Epoch: 01 March)

Event Time Altitude Azimuth Distance (km) Brightness Sun altitude
Rises 05:06:17 0° 198° (SSW) 3,520 9.8 61.9°
Reaches altitude 10° 05:08:53 10° 197° (SSW) 2,535 9.3 61.6°
Maximum altitude 05:14:46 83° 110° (ESE) 831 7.5 60.9°
Drops below altitude 10° 05:20:04 10° 22° (NNE) 2,291 8.3 60.3°
Sets 05:22:19 0° 21° (NNE) 3,159 8.9 60.0°
